When you browse on this site, cookies collect data to enhance your experience and personalize the content and advertising you see.
Visit our Privacy Policy to learn more. By continuing to use the site, you agree to this use of cookies and data.
  • In Czech Republic
  • List of Countries
  • For 7 days
  • Water Temperature
  • Satellite Maps
  • Weather Map
  • Weather Widgets
  • user-avatar
    Login

    Hourly Weather Jalapa

    Today, 20 July, Saturday

    Time Temperature Precipitation Wind Pressure Humidity
    00:00 +16°C° 0 mm 1 mps 642 mmHg 97%
    01:00 +16°C° 0 mm 1 mps 641 mmHg 97%
    02:00 +16°C° 0 mm 1 mps 640 mmHg 97%
    03:00 +16°C° 0 mm 1 mps 640 mmHg 97%
    04:00 +16°C° 0 mm 1 mps 640 mmHg 98%
    05:00 +16°C° 0 mm 1 mps 640 mmHg 98%
    06:00 +16°C° 0 mm 1 mps 640 mmHg 98%
    07:00 +18°C° 0 mm 1 mps 641 mmHg 92%
    08:00 +20°C° 0 mm 1 mps 642 mmHg 87%
    09:00 +21°C° 0 mm 2 mps 643 mmHg 82%
    10:00 +23°C° 0.1 mm 2 mps 643 mmHg 77%
    11:00 +24°C° 0.1 mm 2 mps 643 mmHg 73%
    12:00 +25°C° 0.1 mm 2 mps 643 mmHg 68%
    13:00 +25°C° 0.7 mm 2 mps 643 mmHg 70%
    14:00 +25°C° 0.7 mm 2 mps 642 mmHg 72%
    15:00 +25°C° 0.7 mm 2 mps 642 mmHg 75%
    16:00 +24°C° 2.1 mm 1 mps 641 mmHg 80%
    17:00 +22°C° 2.1 mm 1 mps 641 mmHg 86%
    18:00 +21°C° 2.1 mm 1 mps 641 mmHg 92%
    19:00 +20°C° 1.4 mm 1 mps 641 mmHg 93%
    20:00 +19°C° 1.4 mm 1 mps 641 mmHg 94%
    21:00 +19°C° 1.4 mm 1 mps 642 mmHg 95%
    22:00 +18°C° 0.9 mm 2 mps 642 mmHg 95%
    23:00 +17°C° 0.9 mm 2 mps 641 mmHg 95%

    Tomorrow, 21 July, Sunday

    Time Temperature Precipitation Wind Pressure Humidity
    00:00 +17°C° 0.9 mm 2 mps 641 mmHg 96%
    01:00 +17°C° 0.1 mm 2 mps 641 mmHg 95%
    02:00 +17°C° 0.1 mm 2 mps 641 mmHg 95%
    03:00 +17°C° 0.1 mm 2 mps 640 mmHg 94%
    04:00 +16°C° 0 mm 2 mps 640 mmHg 94%
    05:00 +16°C° 0 mm 1 mps 640 mmHg 93%
    06:00 +16°C° 0 mm 1 mps 640 mmHg 93%
    07:00 +19°C° 0 mm 1 mps 641 mmHg 87%
    08:00 +21°C° 0 mm 1 mps 642 mmHg 82%
    09:00 +22°C° 0 mm 1 mps 643 mmHg 76%
    10:00 +23°C° 0.1 mm 2 mps 643 mmHg 72%
    11:00 +25°C° 0.1 mm 2 mps 643 mmHg 68%
    12:00 +26°C° 0.1 mm 2 mps 643 mmHg 63%
    13:00 +26°C° 0.5 mm 2 mps 643 mmHg 65%
    14:00 +26°C° 0.5 mm 2 mps 642 mmHg 66%
    15:00 +26°C° 0.5 mm 2 mps 642 mmHg 67%
    16:00 +24°C° 1.1 mm 1 mps 642 mmHg 75%
    17:00 +23°C° 1.1 mm 1 mps 641 mmHg 83%
    18:00 +21°C° 1.1 mm 1 mps 641 mmHg 92%
    19:00 +21°C° 1.3 mm 1 mps 641 mmHg 93%
    20:00 +20°C° 1.3 mm 1 mps 641 mmHg 94%
    21:00 +19°C° 1.3 mm 1 mps 642 mmHg 95%
    22:00 +19°C° 0.8 mm 1 mps 642 mmHg 95%
    23:00 +19°C° 0.8 mm 1 mps 642 mmHg 95%

    Day after tomorrow, 22 July, Monday

    Time Temperature Precipitation Wind Pressure Humidity
    00:00 +18°C° 0.8 mm 1 mps 642 mmHg 95%
    01:00 +18°C° 0.3 mm 1 mps 641 mmHg 95%
    02:00 +18°C° 0.3 mm 1 mps 641 mmHg 95%
    03:00 +16°C° 0.3 mm 1 mps 641 mmHg 95%
    04:00 +16°C° 0 mm 1 mps 641 mmHg 95%
    05:00 +16°C° 0 mm 1 mps 641 mmHg 96%
    06:00 +16°C° 0 mm 1 mps 641 mmHg 96%
    07:00 +19°C° 0 mm 1 mps 642 mmHg 92%
    08:00 +20°C° 0 mm 1 mps 643 mmHg 88%
    09:00 +22°C° 0 mm 1 mps 643 mmHg 84%
    10:00 +23°C° 0 mm 1 mps 644 mmHg 78%
    11:00 +25°C° 0 mm 2 mps 644 mmHg 71%
    12:00 +26°C° 0 mm 2 mps 644 mmHg 65%
    13:00 +26°C° 0 mm 2 mps 643 mmHg 64%
    14:00 +26°C° 0 mm 1 mps 643 mmHg 63%
    15:00 +26°C° 0 mm 1 mps 642 mmHg 62%
    16:00 +25°C° 0.1 mm 1 mps 642 mmHg 70%
    17:00 +23°C° 0.1 mm 1 mps 642 mmHg 78%
    18:00 +22°C° 0.1 mm 1 mps 642 mmHg 86%
    19:00 +21°C° 0.4 mm 1 mps 642 mmHg 88%
    20:00 +19°C° 0.4 mm 1 mps 642 mmHg 91%
    21:00 +18°C° 0.4 mm 1 mps 642 mmHg 94%
    22:00 +18°C° 0.1 mm 1 mps 642 mmHg 94%
    23:00 +18°C° 0.1 mm 1 mps 642 mmHg 94%

    23 July, Tuesday

    Time Temperature Precipitation Wind Pressure Humidity
    00:00 +16°C° 0.1 mm 1 mps 642 mmHg 94%
    01:00 +16°C° 0 mm 1 mps 641 mmHg 94%
    02:00 +16°C° 0 mm 1 mps 641 mmHg 94%
    03:00 +16°C° 0 mm 1 mps 640 mmHg 94%
    04:00 +16°C° 0 mm 1 mps 641 mmHg 94%
    05:00 +16°C° 0 mm 1 mps 641 mmHg 94%
    06:00 +16°C° 0 mm 1 mps 641 mmHg 94%
    07:00 +19°C° 0 mm 1 mps 642 mmHg 88%
    08:00 +21°C° 0 mm 1 mps 643 mmHg 83%
    09:00 +23°C° 0 mm 1 mps 644 mmHg 77%
    10:00 +24°C° 0 mm 1 mps 644 mmHg 71%
    11:00 +25°C° 0 mm 1 mps 644 mmHg 66%
    12:00 +27°C° 0 mm 1 mps 644 mmHg 60%
    13:00 +27°C° 0.1 mm 1 mps 644 mmHg 60%
    14:00 +26°C° 0.1 mm 2 mps 643 mmHg 60%
    15:00 +26°C° 0.1 mm 2 mps 643 mmHg 60%
    16:00 +25°C° 0.2 mm 1 mps 642 mmHg 70%
    17:00 +23°C° 0.2 mm 1 mps 642 mmHg 80%
    18:00 +22°C° 0.2 mm 1 mps 642 mmHg 90%
    19:00 +20°C° 0.1 mm 1 mps 642 mmHg 91%
    20:00 +19°C° 0.1 mm 1 mps 642 mmHg 93%
    21:00 +18°C° 0.1 mm 1 mps 642 mmHg 95%
    22:00 +18°C° 0 mm 1 mps 642 mmHg 96%
    23:00 +16°C° 0 mm 1 mps 642 mmHg 96%

    24 July, Wednesday

    Time Temperature Precipitation Wind Pressure Humidity
    00:00 +16°C° 0 mm 1 mps 642 mmHg 97%
    01:00 +16°C° 0 mm 1 mps 641 mmHg 97%
    02:00 +16°C° 0 mm 1 mps 641 mmHg 97%
    03:00 +16°C° 0 mm 1 mps 641 mmHg 97%
    04:00 +15°C° 0 mm 1 mps 641 mmHg 97%
    05:00 +15°C° 0 mm 1 mps 641 mmHg 97%
    06:00 +15°C° 0 mm 1 mps 641 mmHg 97%
    07:00 +18°C° 0 mm 1 mps 642 mmHg 90%
    08:00 +20°C° 0 mm 1 mps 642 mmHg 83%
    09:00 +22°C° 0 mm 1 mps 643 mmHg 77%
    10:00 +23°C° 0 mm 1 mps 643 mmHg 71%
    11:00 +24°C° 0 mm 2 mps 643 mmHg 65%
    12:00 +26°C° 0 mm 2 mps 644 mmHg 58%
    13:00 +26°C° 0 mm 2 mps 643 mmHg 60%
    14:00 +26°C° 0 mm 2 mps 643 mmHg 62%
    15:00 +26°C° 0 mm 2 mps 642 mmHg 63%
    16:00 +24°C° 0.3 mm 2 mps 642 mmHg 72%
    17:00 +23°C° 0.3 mm 2 mps 642 mmHg 81%
    18:00 +21°C° 0.3 mm 1 mps 641 mmHg 90%
    19:00 +20°C° 0 mm 1 mps 641 mmHg 92%
    20:00 +19°C° 0 mm 1 mps 641 mmHg 94%
    21:00 +18°C° 0 mm 1 mps 641 mmHg 96%
    22:00 +16°C° 0 mm 1 mps 641 mmHg 96%
    23:00 +16°C° 0 mm 1 mps 641 mmHg 97%

    25 July, Thursday

    Time Temperature Precipitation Wind Pressure Humidity
    00:00 +16°C° 0 mm 1 mps 641 mmHg 97%
    01:00 +16°C° 0 mm 1 mps 641 mmHg 97%
    02:00 +16°C° 0 mm 1 mps 641 mmHg 96%
    03:00 +16°C° 0 mm 1 mps 641 mmHg 95%
    04:00 +16°C° 0 mm 1 mps 641 mmHg 95%
    05:00 +15°C° 0 mm 1 mps 641 mmHg 94%
    06:00 +15°C° 0 mm 1 mps 641 mmHg 93%
    07:00 +16°C° 0 mm 1 mps 642 mmHg 91%
    08:00 +19°C° 0 mm 1 mps 642 mmHg 88%
    09:00 +20°C° 0 mm 1 mps 643 mmHg 85%
    10:00 +21°C° 0.1 mm 1 mps 643 mmHg 79%
    11:00 +23°C° 0.1 mm 1 mps 643 mmHg 72%
    12:00 +25°C° 0.1 mm 1 mps 644 mmHg 66%
    13:00 +25°C° 0.4 mm 1 mps 643 mmHg 69%
    14:00 +25°C° 0.4 mm 1 mps 642 mmHg 72%
    15:00 +25°C° 0.4 mm 1 mps 642 mmHg 74%
    16:00 +23°C° 0.9 mm 1 mps 642 mmHg 80%
    17:00 +22°C° 0.9 mm 1 mps 642 mmHg 86%
    18:00 +21°C° 0.9 mm 1 mps 641 mmHg 92%
    19:00 +20°C° 0.5 mm 1 mps 641 mmHg 93%
    20:00 +19°C° 0.5 mm 1 mps 641 mmHg 94%
    21:00 +18°C° 0.5 mm 1 mps 642 mmHg 95%
    22:00 +18°C° 0 mm 1 mps 642 mmHg 95%
    23:00 +18°C° 0 mm 1 mps 642 mmHg 96%
    Show more